Wind_Speed
16 16 15 14 15 15 16 16 14 12 12 11 11 10 12 13 13 14 14 15 16 16 17 17 18 20 20 20 19 19 19 21 22 23 24 24 24 24 25 25 26 26 26 27
16 14 14 15 15 15 15 15 14 12 12 12 12 13 12 13 15 15 15 15 15 16 16 16 17 18 20 22 22 20 20 21 22 23 24 25 25 26 26 27 27 27 27 28
16 16 16 15 15 15 14 13 12 12 12 12 13 14 14 13 14 14 14 14 14 16 16 16 17 18 20 20 20 20 21 22 22 23 24 25 26 26 27 28 28 28 28 29
17 17 16 15 13 13 13 12 11 11 13 14 16 17 15 15 14 13 13 12 13 15 16 16 16 18 20 20 20 21 22 22 23 23 24 25 26 27 28 29 29 29 29 29
15 14 15 15 14 14 13 12 12 13 14 16 17 18 17 16 15 14 14 14 15 15 16 16 17 18 19 19 20 21 22 23 24 25 26 26 27 27 28 28 29 30 29 29
15 14 14 14 15 15 14 14 14 15 15 16 17 19 20 18 17 15 15 14 14 14 15 16 17 18 20 21 21 22 22 24 25 26 26 27 28 28 28 29 29 29 29 29
16 15 14 14 15 16 16 16 16 16 16 16 16 18 19 17 16 15 14 14 15 15 15 17 18 19 20 21 22 22 23 24 25 26 27 27 28 28 28 28 29 29 29 29
15 15 15 15 15 16 15 15 15 15 15 15 14 15 14 12 12 14 15 14 15 14 15 16 18 19 20 21 22 23 24 24 25 26 27 27 27 27 28 28 28 28 28 28
13 13 14 15 16 15 14 15 14 15 15 15 14 14 13 12 13 15 15 15 14 14 16 16 17 19 20 22 23 23 24 25 26 26 27 28 28 28 28 28 28 28 28 28
12 12 14 14 15 15 15 16 15 15 16 16 15 14 13 13 14 15 17 15 16 17 16 17 18 19 21 23 24 25 25 26 27 28 28 28 28 28 28 28 28 27 27 27
12 13 13 14 15 15 16 17 17 17 17 17 17 16 15 16 16 17 17 16 18 19 18 20 20 21 22 23 24 26 26 27 28 29 29 28 28 28 27 27 27 27 27 27
11 13 14 14 15 15 16 17 17 17 17 17 18 17 17 18 18 18 18 18 19 21 21 20 21 22 22 23 25 26 27 28 28 28 28 28 28 28 28 27 27 27 27 27
11 12 13 15 15 16 17 18 18 18 18 18 18 18 18 19 19 20 20 21 22 22 22 22 22 22 22 24 25 26 26 27 27 27 27 27 27 27 27 27 27 27 27 27
10 11 11 13 14 15 17 17 17 18 18 18 18 19 19 20 20 21 22 23 24 23 23 23 24 24 24 25 26 26 26 26 26 25 25 26 25 25 25 25 25 25 25 24
10 10 10 11 12 13 14 16 16 16 17 17 17 18 18 19 20 22 24 24 23 22 22 23 24 25 24 24 24 25 25 25 24 24 23 23 23 23 23 23 23 22 21 21
9 10 11 10 10 11 12 13 14 14 15 16 17 17 17 19 21 21 23 24 23 22 23 24 24 23 23 23 23 24 24 23 22 22 21 20 20 20 20 20 20 19 19 19
8 9 9 10 9 10 10 10 11 13 13 14 16 16 18 20 21 20 22 22 22 23 24 24 23 23 23 22 22 22 21 21 20 19 18 18 18 18 18 18 18 18 19 19
7 7 9 9 9 10 9 9 10 11 13 13 15 17 18 19 19 20 22 23 23 23 23 22 22 21 20 19 19 19 18 18 17 16 16 17 17 16 17 16 17 17 17 16
6 6 7 8 9 8 8 8 10 10 11 12 14 16 18 18 19 20 20 21 21 21 20 19 19 18 17 15 15 15 15 15 15 15 14 15 15 15 15 15 16 15 14 13
6 6 6 6 7 7 7 8 8 10 11 12 14 16 17 18 19 19 19 19 20 19 17 16 16 15 13 13 13 13 13 13 12 12 13 13 13 14 14 14 13 13 13 12
5 5 5 4 5 5 6 8 9 11 12 14 15 16 16 17 17 16 17 17 16 15 15 15 14 13 12 11 11 12 12 12 11 11 11 12 12 12 13 12 11 11 10 9
4 3 3 4 5 6 7 8 9 11 12 14 15 15 16 16 15 16 16 16 14 14 14 14 13 12 11 10 9 10 10 10 10 10 10 10 10 10 10 9 9 8 7 6
3 4 5 5 6 7 8 8 9 11 12 13 14 15 15 16 16 16 15 15 13 13 13 12 12 10 9 9 9 10 9 9 9 9 9 9 8 8 8 7 6 6 6 6
4 4 5 6 7 8 8 9 10 12 12 13 13 13 14 14 15 15 14 13 12 11 11 10 10 9 9 9 9 9 8 7 8 8 8 8 7 7 7 7 7 7 7 7
4 5 6 7 8 7 7 9 10 11 12 13 13 12 13 13 13 12 12 11 10 10 9 9 8 8 9 9 9 9 9 9 8 8 8 8 8 8 8 8 9 8 9 9
6 7 7 7 7 8 8 8 9 10 10 11 11 12 12 12 11 10 9 9 9 9 9 9 8 9 9 9 9 10 9 9 10 9 9 9 10 10 11 11 11 11 11 10
Wind_Direction
195 195 193 192 192 196 203 206 207 213 226 240 254 262 262 262 262 263 268 266 267 265 269 271 278 281 285 281 278 279 282 285 284 284 285 285 285 286 287 286 286 286 285 284
190 186 186 191 195 201 208 212 210 213 227 241 259 264 267 271 266 267 269 271 266 265 270 269 275 278 283 282 281 281 283 284 284 285 286 287 287 287 288 288 287 286 284 283
186 185 192 196 197 205 213 217 212 218 228 244 256 263 265 271 274 276 278 273 272 269 272 273 275 279 283 286 281 283 284 284 285 284 285 286 286 287 287 287 286 285 283 282
187 191 197 201 202 207 213 214 211 224 238 249 260 267 269 273 273 274 274 272 276 278 276 278 279 281 285 286 287 285 285 286 286 285 285 286 287 288 288 287 286 285 284 282
188 196 202 204 203 210 209 213 220 230 242 251 262 270 274 275 272 270 273 274 277 277 279 282 283 283 285 286 288 289 286 286 286 286 286 286 287 289 289 289 287 286 285 284
187 196 201 201 207 211 212 217 227 239 248 257 267 271 278 274 271 272 276 278 280 284 285 286 286 286 287 288 289 290 290 291 290 289 287 287 288 289 290 289 288 287 286 285
191 195 198 201 205 210 216 224 232 242 252 260 264 271 278 269 268 271 276 280 278 285 285 288 288 286 287 289 291 293 293 293 293 292 290 290 290 290 290 289 289 288 286 286
198 198 201 204 207 211 218 228 237 247 255 259 261 277 279 273 280 279 280 283 280 281 284 287 289 287 289 291 293 294 294 294 294 294 293 293 293 293 292 291 290 289 288 287
202 203 206 207 210 216 222 230 239 248 256 262 264 277 286 287 290 290 288 288 287 284 286 289 291 292 294 294 294 294 294 294 294 294 293 294 294 293 292 292 292 290 289 287
211 210 205 207 211 217 226 231 235 244 254 262 272 279 287 290 294 297 300 299 293 293 289 290 291 292 293 293 293 294 294 294 294 294 294 294 294 292 291 290 290 290 289 287
219 220 212 213 214 219 227 235 241 247 257 269 277 283 291 295 296 299 300 306 305 301 298 295 293 292 293 293 293 294 294 294 294 294 293 293 294 292 291 290 290 289 289 288
224 226 226 222 222 227 232 239 246 252 261 270 279 283 290 297 297 301 306 308 308 307 304 298 294 294 293 292 293 294 294 293 294 294 293 293 293 292 291 290 290 289 288 287
225 229 230 227 228 231 234 238 247 254 260 269 278 285 292 297 300 303 308 311 311 309 303 299 296 296 295 294 293 294 294 294 294 294 293 292 292 291 290 289 289 288 287 286
230 231 234 230 230 234 234 240 249 257 262 270 276 283 290 295 300 306 309 310 310 306 305 303 303 302 300 299 296 295 293 294 294 294 293 292 292 291 291 290 291 290 288 287
231 232 232 232 233 236 237 242 248 258 264 271 276 283 290 294 298 304 307 308 308 306 306 307 306 306 303 300 298 295 295 295 294 294 294 295 296 296 296 295 295 294 293 291
224 233 234 233 234 238 240 247 252 260 268 273 278 285 294 301 301 301 307 308 306 306 310 310 308 306 303 300 298 297 297 297 295 295 296 297 298 298 299 300 299 298 297 295
227 232 230 227 232 243 249 252 260 265 273 279 281 287 294 301 304 303 308 313 311 310 312 313 312 307 302 300 299 298 297 296 296 297 297 299 301 301 302 303 303 302 300 298
229 232 228 228 240 250 256 257 271 272 277 284 290 293 298 304 306 308 309 311 312 313 314 315 315 313 308 306 303 301 300 297 296 297 297 299 302 304 305 305 305 304 304 303
223 230 238 245 256 254 255 265 279 282 285 291 298 301 303 307 310 311 313 315 315 317 318 319 319 318 314 311 310 308 305 302 300 299 299 300 302 305 307 308 311 311 312 310
234 239 252 266 275 263 270 275 284 291 295 299 305 307 308 309 314 314 315 318 319 321 321 321 323 323 324 322 321 317 315 312 309 306 304 303 305 308 309 311 312 312 314 314
237 249 256 278 293 297 293 290 292 300 303 307 311 314 315 315 316 318 321 322 325 326 326 325 326 326 324 323 326 325 322 318 316 314 312 311 312 314 316 317 316 317 321 324
236 257 282 297 304 317 313 304 306 309 310 315 316 316 318 320 319 320 324 325 325 328 332 332 332 331 329 329 333 335 333 330 327 325 324 325 327 329 330 330 329 332 339 345
250 263 283 299 310 310 314 319 314 314 316 320 322 323 324 324 323 321 323 327 328 333 334 334 339 343 342 341 340 341 339 339 341 342 343 345 347 349 354 358 2 5 11 19
274 280 290 301 306 314 319 320 317 321 325 326 327 329 331 329 328 329 331 334 334 335 338 343 348 351 352 352 350 349 351 353 357 360 3 9 13 15 22 31 35 38 42 45
285 293 300 304 308 314 317 323 324 325 327 329 332 333 334 334 338 342 346 348 351 355 357 2 5 5 9 13 15 17 19 20 20 23 28 30 33 39 46 51 55 57 57 58
292 296 301 305 311 312 316 320 323 328 334 337 338 338 339 340 343 349 353 1 9 16 21 23 25 27 28 29 31 34 36 38 40 43 46 49 52 56 61 65 67 68 67 67
Height
5830 5834 5836 5839 5842 5843 5845 5847 5849 5851 5851 5852 5853 5854 5855 5855 5856 5856 5857 5856 5856 5856 5856 5856 5856 5855 5853 5852 5853 5853 5852 5851 5851 5849 5848 5848 5846 5845 5844 5842 5840 5839 5837 5836
5829 5833 5836 5837 5839 5841 5843 5845 5846 5848 5849 5849 5850 5851 5852 5853 5853 5854 5853 5853 5852 5853 5853 5853 5852 5852 5850 5849 5847 5847 5847 5846 5846 5844 5843 5842 5841 5839 5838 5836 5834 5833 5831 5830
5828 5832 5833 5835 5837 5839 5841 5843 5845 5845 5846 5847 5848 5848 5849 5850 5850 5851 5850 5850 5850 5850 5850 5849 5849 5848 5846 5844 5842 5842 5842 5841 5840 5838 5837 5836 5835 5833 5831 5830 5828 5826 5824 5822
5825 5828 5830 5833 5835 5837 5839 5841 5842 5843 5844 5844 5846 5846 5847 5847 5847 5847 5846 5846 5847 5846 5846 5845 5845 5844 5842 5840 5839 5838 5836 5835 5834 5832 5831 5830 5828 5827 5825 5823 5821 5818 5816 5815
5823 5826 5829 5831 5834 5835 5837 5839 5840 5841 5841 5842 5842 5843 5844 5844 5844 5844 5843 5843 5842 5842 5841 5841 5840 5839 5837 5835 5834 5832 5831 5830 5828 5826 5825 5823 5821 5820 5817 5815 5813 5811 5809 5807
5821 5824 5827 5830 5832 5833 5835 5836 5837 5838 5839 5839 5840 5840 5840 5840 5840 5840 5840 5839 5838 5837 5837 5836 5835 5834 5832 5831 5829 5827 5825 5824 5822 5820 5817 5816 5814 5812 5810 5807 5805 5803 5801 5799
5819 5822 5825 5827 5829 5831 5832 5834 5836 5836 5837 5837 5837 5837 5836 5835 5836 5836 5835 5834 5834 5833 5832 5831 5830 5829 5827 5825 5823 5821 5819 5817 5815 5813 5811 5809 5807 5804 5802 5800 5798 5796 5793 5791
5818 5821 5823 5825 5827 5828 5830 5832 5834 5834 5834 5834 5834 5833 5833 5832 5832 5831 5830 5830 5829 5828 5828 5827 5825 5824 5822 5820 5817 5815 5813 5811 5808 5806 5804 5802 5799 5797 5794 5792 5790 5788 5786 5784
5816 5820 5822 5823 5825 5827 5828 5829 5830 5831 5831 5831 5831 5831 5830 5829 5828 5827 5826 5825 5823 5822 5822 5821 5819 5818 5816 5814 5811 5809 5807 5804 5802 5800 5797 5794 5792 5789 5786 5784 5782 5780 5778 5776
5814 5817 5819 5821 5823 5824 5826 5826 5827 5827 5827 5827 5828 5827 5827 5826 5825 5823 5822 5820 5819 5817 5816 5815 5813 5812 5809 5807 5805 5802 5800 5797 5795 5792 5789 5787 5784 5781 5779 5777 5774 5773 5771 5769
5811 5814 5816 5818 5820 5821 5823 5824 5824 5824 5824 5824 5824 5826 5824 5823 5821 5819 5817 5815 5814 5812 5811 5809 5807 5805 5803 5800 5798 5795 5792 5789 5787 5784 5781 5779 5776 5773 5771 5769 5767 5765 5763 5762
5809 5811 5813 5816 5818 5818 5819 5820 5821 5821 5821 5821 5820 5823 5820 5819 5817 5815 5813 5811 5809 5807 5805 5802 5800 5798 5796 5793 5790 5788 5784 5781 5779 5776 5773 5771 5768 5766 5764 5761 5760 5758 5756 5754
5807 5809 5810 5813 5816 5816 5816 5816 5817 5817 5817 5817 5817 5819 5816 5814 5813 5811 5809 5806 5804 5801 5799 5796 5793 5791 5788 5786 5783 5779 5776 5773 5771 5768 5765 5763 5760 5758 5756 5754 5752 5750 5748 5746
5805 5806 5808 5810 5810 5811 5812 5813 5813 5813 5813 5813 5813 5813 5812 5810 5808 5806 5804 5801 5798 5795 5793 5790 5787 5784 5781 5778 5775 5771 5769 5766 5763 5761 5758 5756 5753 5751 5749 5747 5745 5743 5741 5739
5802 5803 5804 5805 5806 5807 5808 5809 5809 5810 5810 5810 5810 5809 5808 5806 5803 5801 5798 5795 5793 5790 5787 5784 5780 5777 5773 5770 5767 5764 5761 5759 5756 5754 5751 5749 5747 5744 5742 5740 5738 5736 5734 5732
5800 5801 5801 5803 5804 5804 5805 5805 5806 5806 5807 5806 5806 5805 5803 5801 5798 5796 5793 5790 5787 5784 5781 5777 5773 5770 5766 5763 5760 5758 5755 5752 5749 5747 5745 5743 5741 5739 5736 5734 5732 5730 5729 5727
5798 5799 5800 5801 5802 5802 5803 5803 5803 5803 5803 5803 5802 5801 5798 5796 5793 5790 5788 5784 5781 5778 5775 5771 5767 5763 5760 5757 5754 5751 5748 5746 5744 5742 5740 5738 5736 5734 5732 5730 5728 5726 5724 5722
5797 5797 5798 5799 5801 5801 5803 5801 5800 5800 5800 5799 5798 5796 5794 5792 5789 5786 5783 5779 5776 5773 5769 5765 5761 5757 5754 5751 5748 5746 5743 5741 5739 5738 5736 5734 5732 5730 5728 5726 5724 5722 5719 5717
5796 5797 5797 5798 5798 5798 5799 5799 5798 5797 5796 5796 5794 5792 5790 5787 5784 5781 5778 5774 5771 5767 5764 5760 5756 5753 5749 5747 5744 5742 5739 5737 5735 5734 5732 5730 5728 5726 5724 5722 5720 5718 5716 5714
5795 5796 5797 5797 5796 5796 5798 5797 5796 5796 5794 5792 5790 5788 5785 5782 5780 5777 5773 5769 5766 5762 5759 5756 5752 5749 5746 5744 5741 5739 5736 5734 5732 5730 5729 5727 5725 5723 5721 5719 5717 5715 5713 5711
5794 5794 5795 5795 5795 5795 5795 5794 5794 5794 5793 5789 5787 5784 5782 5779 5776 5773 5769 5765 5762 5759 5755 5752 5749 5746 5744 5741 5739 5736 5734 5732 5730 5728 5726 5724 5722 5720 5718 5716 5715 5713 5711 5709
5793 5793 5793 5794 5794 5795 5793 5791 5791 5790 5788 5786 5783 5780 5778 5775 5771 5769 5765 5762 5759 5756 5753 5750 5747 5744 5742 5739 5737 5735 5732 5730 5728 5726 5724 5722 5720 5718 5716 5715 5713 5711 5710 5708
5791 5792 5792 5793 5794 5792 5790 5789 5788 5786 5784 5782 5780 5777 5774 5772 5769 5765 5762 5759 5756 5753 5751 5748 5745 5742 5740 5738 5736 5733 5731 5729 5727 5725 5723 5721 5719 5718 5716 5714 5713 5711 5710 5708
5790 5790 5790 5790 5789 5789 5788 5787 5785 5783 5781 5779 5776 5774 5771 5769 5765 5762 5759 5756 5753 5751 5749 5746 5744 5742 5739 5737 5735 5733 5731 5729 5727 5725 5723 5721 5720 5718 5716 5715 5713 5712 5711 5710
5788 5788 5788 5787 5787 5786 5785 5784 5783 5781 5778 5776 5773 5771 5768 5766 5763 5760 5757 5754 5752 5750 5747 5745 5743 5741 5739 5737 5735 5733 5731 5729 5727 5726 5724 5722 5720 5719 5717 5716 5715 5714 5713 5712
5786 5786 5786 5785 5785 5784 5783 5782 5780 5778 5776 5774 5771 5769 5766 5763 5761 5758 5756 5754 5752 5749 5747 5745 5743 5741 5740 5738 5736 5734 5733 5731 5729 5727 5725 5724 5722 5721 5719 5718 5717 5716 5715 5714